Terminal Aerodrome Forecast
Issued by NWS

Home | Current Version | Previous Version | Text Only | Print | Product List | Glossary On
Versions: 1 2 3 4 5 6 7 8 9 10 11 12
000
FTUS45 KRIW 261124
TAFBPI
TAF
KBPI 261124Z 2612/2712 VRB05KT P6SM VCFG FEW010
     FM261600 VRB05KT P6SM FEW070
     FM270000 34007KT P6SM SCT060 BKN110
     FM270500 VRB05KT P6SM SCT030 BKN050=

USA.gov is the U.S. government's official web portal to all federal, state and local government web resources and services.